Weather History for Challis, ID

Change the Weather History Date:

Saturday, March 22, 2014

  Actual Average Record
Temperature  
Mean Temperature 34 °F 38 °F  
Max Temperature 48 °F 51 °F 72 °F (1915)
Min Temperature 19 °F 26 °F 4 °F (1938)
Degree Days  
Heating Degree Days 31 27  
Month to date heating degree days 619 667  
Since 1 July heating degree days 6368 6716  
Cooling Degree Days 0 0  
Month to date cooling degree days 0 0  
Year to date cooling degree days 0 0  
Moisture  
Dew Point 8 °F    
Average Humidity 40    
Maximum Humidity 62    
Minimum Humidity 17    
Precipitation  
Precipitation 0.00 in 0.03 in 0.13 in (1920)
Month to date precipitation 0.55 0.49  
Year to date precipitation 1.64 1.62  
Sea Level Pressure  
Sea Level Pressure 30.17 in    
Wind  
Wind Speed 3 mph (North)    
Max Wind Speed 13 mph    
Max Gust Speed 16 mph    
Visibility 10 miles    
Events      
T = Trace of Precipitation, MM = Missing Value Source: NWS Daily Summary

Daily Weather History Graph

Daily Weather History Graph

Search for Another Location

Airport:

Trip Planner

Search our weather history database for the weather conditions in past years. The results will help you decide how hot, cold, wet, or windy it might be!

Date:

Astronomy

Mar. 22, 2014 Rise Set
Actual Time 7:36 AM MDT 7:51 PM MDT
Civil Twilight 7:07 AM MDT 8:21 PM MDT
Nautical Twilight 6:32 AM MDT 8:55 PM MDT
Astronomical Twilight 5:57 AM MDT 9:30 PM MDT
Moon 1:26 AM MDT 11:11 AM MDT
Length of Visible Light 13h 13m
Length of Day
12h 15m
Waning Gibbous, 65% of the Moon is Illuminated
Mar 22
Waning Gibbous
Mar 23
Last Quarter
Mar 30
New
Apr 7
First Quarter
Apr 15
Full

Hourly Weather History & Observations

Time (MDT) Temp. Windchill Dew Point Humidity Pressure Visibility Wind Dir Wind Speed Gust Speed Precip Events Conditions
12:55 AM 28.9 °F 21.9 °F 12.9 °F 51% 30.09 in 10.0 mi NW 6.9 mph - N/A   Overcast
1:55 AM 30.0 °F 20.5 °F 8.1 °F 40% 30.09 in 10.0 mi North 11.5 mph - N/A   Mostly Cloudy
2:55 AM 27.0 °F 21.6 °F 8.1 °F 45% 30.12 in 10.0 mi NNW 4.6 mph - N/A   Clear
3:55 AM 24.1 °F 18.2 °F 8.1 °F 51% 30.13 in 10.0 mi Variable 4.6 mph - N/A   Clear
4:55 AM 24.1 °F 15.2 °F 8.1 °F 51% 30.14 in 10.0 mi NNW 8.1 mph - N/A   Clear
5:55 AM 19.9 °F 14.9 °F 8.1 °F 60% 30.18 in 10.0 mi NW 3.5 mph - N/A   Clear
6:55 AM 19.9 °F - 8.1 °F 60% 30.21 in 10.0 mi Calm Calm - N/A   Clear
7:55 AM 19.9 °F 13.4 °F 8.1 °F 60% 30.25 in 10.0 mi SE 4.6 mph - N/A   Clear
8:55 AM 24.1 °F 19.7 °F 10.0 °F 55% 30.27 in 10.0 mi East 3.5 mph - N/A   Clear
9:55 AM 27.0 °F - 9.0 °F 47% 30.26 in 10.0 mi Calm Calm - N/A   Clear
10:55 AM 32.0 °F - 9.0 °F 38% 30.25 in 10.0 mi Calm Calm - N/A   Clear
11:55 AM 34.0 °F - 8.1 °F 34% 30.24 in 10.0 mi Calm Calm - N/A   Clear
12:55 PM 36.0 °F - 9.0 °F 33% 30.23 in 10.0 mi Calm Calm - N/A   Clear
1:55 PM 39.9 °F 36.7 °F 7.0 °F 26% 30.19 in 10.0 mi Variable 4.6 mph - N/A   Clear
2:55 PM 41.0 °F 39.0 °F 3.9 °F 21% 30.17 in 10.0 mi Variable 3.5 mph - N/A   Clear
3:55 PM 44.1 °F - 3.0 °F 18% 30.15 in 10.0 mi Calm Calm - N/A   Clear
4:55 PM 46.0 °F - 3.0 °F 17% 30.12 in 10.0 mi Calm Calm - N/A   Clear
5:55 PM 46.9 °F - 3.0 °F 16% 30.12 in 10.0 mi Calm Calm - N/A   Clear
6:55 PM 46.0 °F 43.9 °F 5.0 °F 19% 30.12 in 10.0 mi NE 4.6 mph - N/A   Clear
7:55 PM 39.0 °F 35.7 °F 7.0 °F 27% 30.14 in 10.0 mi West 4.6 mph - N/A   Clear
8:55 PM 35.1 °F 32.2 °F 10.9 °F 37% 30.16 in 10.0 mi East 3.5 mph - N/A   Clear
9:55 PM 34.0 °F - 10.9 °F 38% 30.16 in 10.0 mi Calm Calm - N/A   Clear
10:55 PM 30.9 °F - 10.0 °F 42% 30.15 in 10.0 mi Calm Calm - N/A   Clear
11:55 PM 28.9 °F - 10.0 °F 45% 30.16 in 10.0 mi Calm Calm - N/A   Clear